contact:dominique.lefevre@mio.osupytheas.fr, maurice.libes@osupytheas.fr, didier.mallarino@osupytheas.fr
Project:EMSO http://www.emso-fr.org/EMSO-France
Depth: 2436.0 m
Title:EMSO Ligure Ouest : Data MII capteur MICROCAT
DateTime_Computer,Latitude,Longitude,Temperature,Conductivity,Pressure,DateTime_Instrument
DateTime_Computer,Latitude,Longitude,degC,S m-1,dbar,DateTime_Instrument
2019-07-02T00:01:19Z,42.805,6.029,13.2958,4.59966,2469.83,2019-7-02T02:01:37Z
2019-07-02T00:04:22Z,42.805,6.029,13.2958,4.59968,2469.806,2019-7-02T02:04:40Z
2019-07-02T00:07:25Z,42.805,6.029,13.2958,4.59958,2469.83,2019-7-02T02:07:43Z
2019-07-02T00:10:28Z,42.805,6.029,13.2955,4.59969,2469.853,2019-7-02T02:10:46Z
2019-07-02T00:13:31Z,42.805,6.029,13.2958,4.59966,2469.83,2019-7-02T02:13:49Z
2019-07-02T00:16:34Z,42.805,6.029,13.2957,4.59971,2469.844,2019-7-02T02:16:51Z
2019-07-02T00:19:37Z,42.805,6.029,13.2957,4.59962,2469.853,2019-7-02T02:19:54Z
2019-07-02T00:22:40Z,42.805,6.029,13.2957,4.59968,2469.821,2019-7-02T02:22:57Z
2019-07-02T00:25:43Z,42.805,6.029,13.2960,4.59963,2469.76,2019-7-02T02:26:00Z
2019-07-02T00:28:46Z,42.805,6.029,13.2957,4.59962,2469.821,2019-7-02T02:29:03Z
2019-07-02T00:31:49Z,42.805,6.029,13.2963,4.59969,2469.806,2019-7-02T02:32:06Z
2019-07-02T00:34:52Z,42.805,6.029,13.2957,4.59962,2469.797,2019-7-02T02:35:09Z
2019-07-02T00:37:55Z,42.805,6.029,13.2957,4.59967,2469.806,2019-7-02T02:38:12Z
2019-07-02T00:40:58Z,42.805,6.029,13.2957,4.59966,2469.844,2019-7-02T02:41:15Z
2019-07-02T00:44:01Z,42.805,6.029,13.2959,4.59968,2469.821,2019-7-02T02:44:18Z
2019-07-02T00:47:04Z,42.805,6.029,13.2961,4.59968,2469.821,2019-7-02T02:47:21Z
2019-07-02T00:50:07Z,42.805,6.029,13.2954,4.59956,2469.83,2019-7-02T02:50:24Z
2019-07-02T00:53:09Z,42.805,6.029,13.2964,4.59961,2469.806,2019-7-02T02:53:27Z
2019-07-02T00:56:12Z,42.805,6.029,13.2958,4.59966,2469.83,2019-7-02T02:56:30Z
2019-07-02T00:59:15Z,42.805,6.029,13.2959,4.59968,2469.797,2019-7-02T02:59:33Z
2019-07-02T01:02:18Z,42.805,6.029,13.2961,4.59967,2469.773,2019-7-02T03:02:36Z
2019-07-02T01:05:21Z,42.805,6.029,13.2958,4.59967,2469.806,2019-7-02T03:05:39Z
2019-07-02T01:08:24Z,42.805,6.029,13.2964,4.59969,2469.806,2019-7-02T03:08:41Z
2019-07-02T01:11:27Z,42.805,6.029,13.2960,4.59968,2469.797,2019-7-02T03:11:44Z
2019-07-02T01:14:30Z,42.805,6.029,13.2957,4.59968,2469.797,2019-7-02T03:14:47Z
2019-07-02T01:17:33Z,42.805,6.029,13.2958,4.59966,2469.797,2019-7-02T03:17:50Z
2019-07-02T01:20:36Z,42.805,6.029,13.2965,4.59981,2469.821,2019-7-02T03:20:53Z
2019-07-02T01:23:39Z,42.805,6.029,13.2955,4.59960,2469.783,2019-7-02T03:23:56Z
2019-07-02T01:26:42Z,42.805,6.029,13.2957,4.59966,2469.783,2019-7-02T03:26:59Z
2019-07-02T01:29:45Z,42.805,6.029,13.2957,4.59968,2469.783,2019-7-02T03:30:02Z
2019-07-02T01:32:48Z,42.805,6.029,13.2957,4.59965,2469.783,2019-7-02T03:33:05Z
2019-07-02T01:35:51Z,42.805,6.029,13.2953,4.59966,2469.783,2019-7-02T03:36:08Z
2019-07-02T01:38:54Z,42.805,6.029,13.2958,4.59967,2469.806,2019-7-02T03:39:11Z
2019-07-02T01:41:57Z,42.805,6.029,13.2958,4.59967,2469.806,2019-7-02T03:42:14Z
2019-07-02T01:44:59Z,42.805,6.029,13.2956,4.59962,2469.821,2019-7-02T03:45:17Z
2019-07-02T01:48:02Z,42.805,6.029,13.2954,4.59958,2469.806,2019-7-02T03:48:20Z
2019-07-02T01:51:05Z,42.805,6.029,13.2961,4.59962,2469.76,2019-7-02T03:51:23Z
2019-07-02T01:54:08Z,42.805,6.029,13.2957,4.59973,2469.783,2019-7-02T03:54:26Z
2019-07-02T01:57:11Z,42.805,6.029,13.2964,4.59968,2469.821,2019-7-02T03:57:29Z
2019-07-02T02:00:14Z,42.805,6.029,13.2964,4.59976,2469.806,2019-7-02T04:00:32Z
2019-07-02T02:03:17Z,42.805,6.029,13.2964,4.59978,2469.797,2019-7-02T04:03:34Z
2019-07-02T02:06:20Z,42.805,6.029,13.2957,4.59962,2469.806,2019-7-02T04:06:37Z
2019-07-02T02:09:23Z,42.805,6.029,13.2954,4.59964,2469.773,2019-7-02T04:09:40Z
2019-07-02T02:12:26Z,42.805,6.029,13.2958,4.59961,2469.844,2019-7-02T04:12:43Z
2019-07-02T02:15:29Z,42.805,6.029,13.2958,4.59966,2469.806,2019-7-02T04:15:46Z
2019-07-02T02:18:32Z,42.805,6.029,13.2958,4.59964,2469.821,2019-7-02T04:18:49Z
2019-07-02T02:21:35Z,42.805,6.029,13.2955,4.59966,2469.821,2019-7-02T04:21:52Z
2019-07-02T02:24:38Z,42.805,6.029,13.2958,4.59964,2469.783,2019-7-02T04:24:55Z
2019-07-02T02:27:41Z,42.805,6.029,13.2962,4.59968,2469.853,2019-7-02T04:27:58Z
2019-07-02T02:30:44Z,42.805,6.029,13.2963,4.59970,2469.806,2019-7-02T04:31:01Z
2019-07-02T02:33:47Z,42.805,6.029,13.2963,4.59968,2469.821,2019-7-02T04:34:04Z
2019-07-02T02:36:50Z,42.805,6.029,13.2957,4.59970,2469.821,2019-7-02T04:37:07Z
2019-07-02T02:39:52Z,42.805,6.029,13.2967,4.59973,2469.867,2019-7-02T04:40:10Z
2019-07-02T02:42:55Z,42.805,6.029,13.2959,4.59971,2469.76,2019-7-02T04:43:13Z
2019-07-02T02:45:58Z,42.805,6.029,13.2957,4.59969,2469.806,2019-7-02T04:46:16Z
2019-07-02T02:49:01Z,42.805,6.029,13.2961,4.59971,2469.806,2019-7-02T04:49:19Z
2019-07-02T02:52:04Z,42.805,6.029,13.2958,4.59968,2469.821,2019-7-02T04:52:22Z
2019-07-02T02:55:07Z,42.805,6.029,13.2961,4.59964,2469.793,2019-7-02T04:55:25Z
2019-07-02T02:58:10Z,42.805,6.029,13.2959,4.59961,2469.821,2019-7-02T04:58:27Z
2019-07-02T03:01:13Z,42.805,6.029,13.2962,4.59973,2469.806,2019-7-02T05:01:30Z
2019-07-02T03:04:16Z,42.805,6.029,13.2958,4.59971,2469.821,2019-7-02T05:04:33Z
2019-07-02T03:07:19Z,42.805,6.029,13.2960,4.59969,2469.83,2019-7-02T05:07:36Z
2019-07-02T03:10:22Z,42.805,6.029,13.2959,4.59968,2469.783,2019-7-02T05:10:39Z
2019-07-02T03:13:25Z,42.805,6.029,13.2963,4.59980,2469.806,2019-7-02T05:13:42Z
2019-07-02T03:16:28Z,42.805,6.029,13.2961,4.59968,2469.806,2019-7-02T05:16:45Z
2019-07-02T03:19:31Z,42.805,6.029,13.2958,4.59962,2469.806,2019-7-02T05:19:48Z
2019-07-02T03:22:34Z,42.805,6.029,13.2961,4.59967,2469.853,2019-7-02T05:22:51Z
2019-07-02T03:25:37Z,42.805,6.029,13.2961,4.59976,2469.844,2019-7-02T05:25:54Z
2019-07-02T03:28:40Z,42.805,6.029,13.2964,4.59974,2469.853,2019-7-02T05:28:57Z
2019-07-02T03:31:42Z,42.805,6.029,13.2958,4.59967,2469.853,2019-7-02T05:32:00Z
2019-07-02T03:34:45Z,42.805,6.029,13.2967,4.59967,2469.867,2019-7-02T05:35:03Z
2019-07-02T03:37:48Z,42.805,6.029,13.2961,4.59968,2469.83,2019-7-02T05:38:06Z
2019-07-02T03:40:51Z,42.805,6.029,13.2968,4.59978,2469.853,2019-7-02T05:41:09Z
2019-07-02T03:43:54Z,42.805,6.029,13.2958,4.59964,2469.867,2019-7-02T05:44:12Z
2019-07-02T03:46:57Z,42.805,6.029,13.2961,4.59971,2469.867,2019-7-02T05:47:15Z
2019-07-02T03:50:00Z,42.805,6.029,13.2956,4.59966,2469.867,2019-7-02T05:50:18Z
2019-07-02T03:53:03Z,42.805,6.029,13.2957,4.59970,2469.867,2019-7-02T05:53:20Z
2019-07-02T03:56:06Z,42.805,6.029,13.2961,4.59969,2469.876,2019-7-02T05:56:23Z
2019-07-02T03:59:09Z,42.805,6.029,13.2962,4.59964,2469.89,2019-7-02T05:59:26Z
2019-07-02T04:02:12Z,42.805,6.029,13.2962,4.59964,2469.853,2019-7-02T06:02:29Z
2019-07-02T04:05:15Z,42.805,6.029,13.2956,4.59970,2469.876,2019-7-02T06:05:32Z
2019-07-02T04:08:18Z,42.805,6.029,13.2962,4.59971,2469.853,2019-7-02T06:08:35Z
2019-07-02T04:11:21Z,42.805,6.029,13.2966,4.59976,2469.876,2019-7-02T06:11:38Z
2019-07-02T04:14:24Z,42.805,6.029,13.2968,4.59978,2469.83,2019-7-02T06:14:41Z
2019-07-02T04:17:27Z,42.805,6.029,13.2960,4.59968,2469.89,2019-7-02T06:17:44Z
2019-07-02T04:20:30Z,42.805,6.029,13.2960,4.59970,2469.876,2019-7-02T06:20:47Z
2019-07-02T04:23:33Z,42.805,6.029,13.2962,4.59964,2469.867,2019-7-02T06:23:50Z
2019-07-02T04:26:35Z,42.805,6.029,13.2960,4.59967,2469.853,2019-7-02T06:26:53Z
2019-07-02T04:29:38Z,42.805,6.029,13.2961,4.59964,2469.914,2019-7-02T06:29:56Z
2019-07-02T04:32:41Z,42.805,6.029,13.2960,4.59968,2469.89,2019-7-02T06:32:59Z
2019-07-02T04:35:44Z,42.805,6.029,13.2961,4.59973,2469.876,2019-7-02T06:36:02Z
2019-07-02T04:38:47Z,42.805,6.029,13.2965,4.59971,2469.914,2019-7-02T06:39:05Z
2019-07-02T04:41:50Z,42.805,6.029,13.2963,4.59971,2469.9,2019-7-02T06:42:08Z
2019-07-02T04:44:53Z,42.805,6.029,13.2960,4.59976,2469.9,2019-7-02T06:45:10Z
2019-07-02T04:47:56Z,42.805,6.029,13.2964,4.59976,2469.947,2019-7-02T06:48:13Z
2019-07-02T04:50:59Z,42.805,6.029,13.2964,4.59974,2469.914,2019-7-02T06:51:16Z
2019-07-02T04:54:02Z,42.805,6.029,13.2968,4.59978,2469.9,2019-7-02T06:54:19Z
2019-07-02T04:57:05Z,42.805,6.029,13.2961,4.59976,2469.89,2019-7-02T06:57:22Z
2019-07-02T05:00:08Z,42.805,6.029,13.2966,4.59966,2469.937,2019-7-02T07:00:25Z
2019-07-02T05:03:11Z,42.805,6.029,13.2960,4.59966,2469.923,2019-7-02T07:03:28Z
2019-07-02T05:06:14Z,42.805,6.029,13.2957,4.59963,2469.923,2019-7-02T07:06:31Z
2019-07-02T05:09:17Z,42.805,6.029,13.2961,4.59978,2469.97,2019-7-02T07:09:34Z
2019-07-02T05:12:20Z,42.805,6.029,13.2962,4.59962,2469.923,2019-7-02T07:12:37Z
2019-07-02T05:15:23Z,42.805,6.029,13.2957,4.59973,2469.9,2019-7-02T07:15:40Z
2019-07-02T05:18:26Z,42.805,6.029,13.2956,4.59976,2469.96,2019-7-02T07:18:43Z
2019-07-02T05:21:28Z,42.805,6.029,13.2960,4.59968,2469.947,2019-7-02T07:21:46Z
2019-07-02T05:24:31Z,42.805,6.029,13.2964,4.59969,2469.947,2019-7-02T07:24:49Z
2019-07-02T05:27:34Z,42.805,6.029,13.2960,4.59973,2469.9,2019-7-02T07:27:52Z
2019-07-02T05:30:37Z,42.805,6.029,13.2960,4.59969,2469.923,2019-7-02T07:30:55Z
2019-07-02T05:33:40Z,42.805,6.029,13.2963,4.59978,2469.923,2019-7-02T07:33:58Z
2019-07-02T05:36:43Z,42.805,6.029,13.2958,4.59968,2469.923,2019-7-02T07:37:01Z
2019-07-02T05:39:46Z,42.805,6.029,13.2957,4.59971,2469.937,2019-7-02T07:40:03Z
2019-07-02T05:42:49Z,42.805,6.029,13.2964,4.59977,2469.9,2019-7-02T07:43:06Z
2019-07-02T05:45:52Z,42.805,6.029,13.2964,4.59971,2469.947,2019-7-02T07:46:09Z
2019-07-02T05:48:55Z,42.805,6.029,13.2961,4.59968,2469.937,2019-7-02T07:49:12Z
2019-07-02T05:51:58Z,42.805,6.029,13.2960,4.59973,2469.914,2019-7-02T07:52:15Z
2019-07-02T05:55:01Z,42.805,6.029,13.2964,4.59973,2469.863,2019-7-02T07:55:18Z
2019-07-02T05:58:04Z,42.805,6.029,13.2966,4.59971,2469.923,2019-7-02T07:58:21Z
2019-07-02T06:01:07Z,42.805,6.029,13.2963,4.59980,2469.914,2019-7-02T08:01:24Z
2019-07-02T06:04:10Z,42.805,6.029,13.2964,4.59980,2469.96,2019-7-02T08:04:27Z
2019-07-02T06:07:13Z,42.805,6.029,13.2958,4.59970,2469.937,2019-7-02T08:07:30Z
2019-07-02T06:10:16Z,42.805,6.029,13.2964,4.59976,2469.923,2019-7-02T08:10:33Z
2019-07-02T06:13:18Z,42.805,6.029,13.2958,4.59972,2469.947,2019-7-02T08:13:36Z
2019-07-02T06:16:21Z,42.805,6.029,13.2962,4.59968,2469.9,2019-7-02T08:16:39Z
2019-07-02T06:19:24Z,42.805,6.029,13.2956,4.59960,2469.923,2019-7-02T08:19:42Z
2019-07-02T06:22:27Z,42.805,6.029,13.2961,4.59967,2469.947,2019-7-02T08:22:45Z
2019-07-02T06:25:30Z,42.805,6.029,13.2963,4.59975,2469.96,2019-7-02T08:25:48Z
2019-07-02T06:28:33Z,42.805,6.029,13.2964,4.59980,2469.923,2019-7-02T08:28:51Z
2019-07-02T06:31:36Z,42.805,6.029,13.2960,4.59974,2469.947,2019-7-02T08:31:54Z
2019-07-02T06:34:39Z,42.805,6.029,13.2966,4.59968,2469.914,2019-7-02T08:34:56Z
2019-07-02T06:37:42Z,42.805,6.029,13.2967,4.59972,2469.97,2019-7-02T08:37:59Z
2019-07-02T06:40:45Z,42.805,6.029,13.2967,4.59979,2469.984,2019-7-02T08:41:02Z
2019-07-02T06:43:48Z,42.805,6.029,13.2960,4.59975,2469.97,2019-7-02T08:44:05Z
2019-07-02T06:46:51Z,42.805,6.029,13.2963,4.59972,2469.937,2019-7-02T08:47:08Z
2019-07-02T06:49:54Z,42.805,6.029,13.2961,4.59969,2469.947,2019-7-02T08:50:11Z
2019-07-02T06:52:57Z,42.805,6.029,13.2966,4.59966,2469.96,2019-7-02T08:53:14Z
2019-07-02T06:56:00Z,42.805,6.029,13.2964,4.59974,2469.937,2019-7-02T08:56:17Z
2019-07-02T06:59:03Z,42.805,6.029,13.2958,4.59970,2469.96,2019-7-02T08:59:20Z
2019-07-02T07:02:06Z,42.805,6.029,13.2961,4.59975,2469.923,2019-7-02T09:02:23Z
2019-07-02T07:05:09Z,42.805,6.029,13.2961,4.59970,2469.96,2019-7-02T09:05:26Z
2019-07-02T07:08:11Z,42.805,6.029,13.2961,4.59974,2469.947,2019-7-02T09:08:29Z
2019-07-02T07:11:14Z,42.805,6.029,13.2958,4.59975,2469.937,2019-7-02T09:11:32Z
2019-07-02T07:14:17Z,42.805,6.029,13.2959,4.59966,2469.937,2019-7-02T09:14:35Z
2019-07-02T07:17:20Z,42.805,6.029,13.2964,4.59979,2469.937,2019-7-02T09:17:38Z
2019-07-02T07:20:23Z,42.805,6.029,13.2962,4.59973,2469.947,2019-7-02T09:20:41Z
2019-07-02T07:23:26Z,42.805,6.029,13.2967,4.59976,2469.914,2019-7-02T09:23:44Z
2019-07-02T07:26:29Z,42.805,6.029,13.2961,4.59981,2469.914,2019-7-02T09:26:46Z
2019-07-02T07:29:32Z,42.805,6.029,13.2963,4.59972,2469.914,2019-7-02T09:29:49Z
2019-07-02T07:32:35Z,42.805,6.029,13.2958,4.59972,2469.947,2019-7-02T09:32:52Z
2019-07-02T07:35:38Z,42.805,6.029,13.2963,4.59966,2469.923,2019-7-02T09:35:55Z
2019-07-02T07:38:41Z,42.805,6.029,13.2961,4.59974,2469.923,2019-7-02T09:38:58Z
2019-07-02T07:41:44Z,42.805,6.029,13.2967,4.59973,2469.937,2019-7-02T09:42:01Z
2019-07-02T07:44:47Z,42.805,6.029,13.2963,4.59977,2469.96,2019-7-02T09:45:04Z
2019-07-02T07:47:50Z,42.805,6.029,13.2962,4.59966,2469.937,2019-7-02T09:48:07Z
2019-07-02T07:50:53Z,42.805,6.029,13.2967,4.59966,2469.923,2019-7-02T09:51:10Z
2019-07-02T07:53:56Z,42.805,6.029,13.2967,4.59980,2469.923,2019-7-02T09:54:13Z
2019-07-02T07:56:59Z,42.805,6.029,13.2965,4.59978,2469.876,2019-7-02T09:57:16Z
2019-07-02T08:00:01Z,42.805,6.029,13.2961,4.59966,2469.914,2019-7-02T10:00:19Z
2019-07-02T08:03:04Z,42.805,6.029,13.2961,4.59973,2469.89,2019-7-02T10:03:22Z
2019-07-02T08:06:07Z,42.805,6.029,13.2960,4.59970,2469.914,2019-7-02T10:06:25Z
2019-07-02T08:09:10Z,42.805,6.029,13.2960,4.59964,2469.9,2019-7-02T10:09:28Z
2019-07-02T08:12:13Z,42.805,6.029,13.2957,4.59968,2469.876,2019-7-02T10:12:31Z
2019-07-02T08:15:16Z,42.805,6.029,13.2961,4.59970,2469.937,2019-7-02T10:15:34Z
2019-07-02T08:18:19Z,42.805,6.029,13.2971,4.59976,2469.9,2019-7-02T10:18:37Z
2019-07-02T08:21:22Z,42.805,6.029,13.2958,4.59975,2469.9,2019-7-02T10:21:40Z
2019-07-02T08:24:25Z,42.805,6.029,13.2958,4.59968,2469.914,2019-7-02T10:24:42Z
2019-07-02T08:27:28Z,42.805,6.029,13.2960,4.59966,2469.914,2019-7-02T10:27:45Z
2019-07-02T08:30:31Z,42.805,6.029,13.2964,4.59968,2469.886,2019-7-02T10:30:48Z
2019-07-02T08:33:34Z,42.805,6.029,13.2962,4.59971,2469.89,2019-7-02T10:33:51Z
2019-07-02T08:36:37Z,42.805,6.029,13.2961,4.59978,2469.89,2019-7-02T10:36:54Z
2019-07-02T08:39:40Z,42.805,6.029,13.2967,4.59976,2469.863,2019-7-02T10:39:57Z
2019-07-02T08:42:43Z,42.805,6.029,13.2963,4.59968,2469.89,2019-7-02T10:43:00Z
2019-07-02T08:45:46Z,42.805,6.029,13.2968,4.59973,2469.876,2019-7-02T10:46:03Z
2019-07-02T08:48:49Z,42.805,6.029,13.2963,4.59973,2469.867,2019-7-02T10:49:06Z
2019-07-02T08:51:52Z,42.805,6.029,13.2963,4.59972,2469.867,2019-7-02T10:52:09Z
2019-07-02T08:54:55Z,42.805,6.029,13.2960,4.59966,2469.876,2019-7-02T10:55:12Z
2019-07-02T08:57:57Z,42.805,6.029,13.2966,4.59967,2469.89,2019-7-02T10:58:15Z
2019-07-02T09:01:00Z,42.805,6.029,13.2966,4.59971,2469.853,2019-7-02T11:01:18Z
2019-07-02T09:04:03Z,42.805,6.029,13.2960,4.59968,2469.867,2019-7-02T11:04:21Z
2019-07-02T09:07:06Z,42.805,6.029,13.2961,4.59970,2469.89,2019-7-02T11:07:24Z
2019-07-02T09:10:09Z,42.805,6.029,13.2964,4.59968,2469.89,2019-7-02T11:10:27Z
2019-07-02T09:13:12Z,42.805,6.029,13.2964,4.59967,2469.876,2019-7-02T11:13:30Z
2019-07-02T09:16:15Z,42.805,6.029,13.2966,4.59965,2469.867,2019-7-02T11:16:33Z
2019-07-02T09:19:18Z,42.805,6.029,13.2965,4.59965,2469.853,2019-7-02T11:19:36Z
2019-07-02T09:22:21Z,42.805,6.029,13.2967,4.59973,2469.806,2019-7-02T11:22:38Z
2019-07-02T09:25:24Z,42.805,6.029,13.2958,4.59966,2469.83,2019-7-02T11:25:41Z
2019-07-02T09:28:27Z,42.805,6.029,13.2959,4.59969,2469.853,2019-7-02T11:28:44Z
2019-07-02T09:31:30Z,42.805,6.029,13.2960,4.59968,2469.853,2019-7-02T11:31:47Z
2019-07-02T09:34:33Z,42.805,6.029,13.2966,4.59967,2469.821,2019-7-02T11:34:50Z
2019-07-02T09:37:36Z,42.805,6.029,13.2959,4.59965,2469.867,2019-7-02T11:37:53Z
2019-07-02T09:40:39Z,42.805,6.029,13.2958,4.59964,2469.83,2019-7-02T11:40:56Z
2019-07-02T09:43:42Z,42.805,6.029,13.2964,4.59965,2469.867,2019-7-02T11:43:59Z
2019-07-02T09:46:45Z,42.805,6.029,13.2963,4.59976,2469.83,2019-7-02T11:47:02Z
2019-07-02T09:49:48Z,42.805,6.029,13.2961,4.59968,2469.83,2019-7-02T11:50:05Z
2019-07-02T09:52:51Z,42.805,6.029,13.2960,4.59966,2469.844,2019-7-02T11:53:08Z
2019-07-02T09:55:54Z,42.805,6.029,13.2962,4.59971,2469.783,2019-7-02T11:56:11Z
2019-07-02T09:58:56Z,42.805,6.029,13.2964,4.59971,2469.821,2019-7-02T11:59:14Z
2019-07-02T10:01:59Z,42.805,6.029,13.2961,4.59964,2469.853,2019-7-02T12:02:17Z
2019-07-02T10:05:02Z,42.805,6.029,13.2966,4.59964,2469.83,2019-7-02T12:05:20Z
2019-07-02T10:08:05Z,42.805,6.029,13.2967,4.59974,2469.783,2019-7-02T12:08:23Z
2019-07-02T10:11:08Z,42.805,6.029,13.2962,4.59961,2469.806,2019-7-02T12:11:26Z
2019-07-02T10:14:11Z,42.805,6.029,13.2962,4.59970,2469.783,2019-7-02T12:14:29Z
2019-07-02T10:17:14Z,42.805,6.029,13.2957,4.59972,2469.797,2019-7-02T12:17:32Z
2019-07-02T10:20:17Z,42.805,6.029,13.2956,4.59961,2469.821,2019-7-02T12:20:34Z
2019-07-02T10:23:20Z,42.805,6.029,13.2964,4.59971,2469.844,2019-7-02T12:23:37Z
2019-07-02T10:26:23Z,42.805,6.029,13.2958,4.59969,2469.783,2019-7-02T12:26:40Z
2019-07-02T10:29:26Z,42.805,6.029,13.2961,4.59968,2469.806,2019-7-02T12:29:43Z
2019-07-02T10:32:29Z,42.805,6.029,13.2963,4.59966,2469.783,2019-7-02T12:32:46Z
2019-07-02T10:35:32Z,42.805,6.029,13.2961,4.59971,2469.797,2019-7-02T12:35:49Z
2019-07-02T10:38:35Z,42.805,6.029,13.2960,4.59959,2469.806,2019-7-02T12:38:52Z
2019-07-02T10:41:38Z,42.805,6.029,13.2963,4.59967,2469.806,2019-7-02T12:41:55Z
2019-07-02T10:44:41Z,42.805,6.029,13.2961,4.59966,2469.797,2019-7-02T12:44:58Z
2019-07-02T10:47:44Z,42.805,6.029,13.2961,4.59963,2469.783,2019-7-02T12:48:01Z
2019-07-02T10:50:47Z,42.805,6.029,13.2963,4.59967,2469.797,2019-7-02T12:51:04Z
2019-07-02T10:53:50Z,42.805,6.029,13.2964,4.59979,2469.797,2019-7-02T12:54:07Z
2019-07-02T10:56:52Z,42.805,6.029,13.2958,4.59973,2469.806,2019-7-02T12:57:10Z
2019-07-02T10:59:55Z,42.805,6.029,13.2961,4.59969,2469.806,2019-7-02T13:00:13Z
2019-07-02T11:02:58Z,42.805,6.029,13.2960,4.59974,2469.773,2019-7-02T13:03:16Z
2019-07-02T11:06:01Z,42.805,6.029,13.2960,4.59976,2469.76,2019-7-02T13:06:19Z
2019-07-02T11:09:04Z,42.805,6.029,13.2958,4.59964,2469.783,2019-7-02T13:09:22Z
2019-07-02T11:12:07Z,42.805,6.029,13.2960,4.59973,2469.797,2019-7-02T13:12:25Z
2019-07-02T11:15:10Z,42.805,6.029,13.2962,4.59981,2469.76,2019-7-02T13:15:28Z
2019-07-02T11:18:13Z,42.805,6.029,13.2957,4.59968,2469.769,2019-7-02T13:18:30Z
2019-07-02T11:21:16Z,42.805,6.029,13.2958,4.59970,2469.773,2019-7-02T13:21:33Z
2019-07-02T11:24:19Z,42.805,6.029,13.2958,4.59966,2469.783,2019-7-02T13:24:36Z
2019-07-02T11:27:22Z,42.805,6.029,13.2964,4.59965,2469.76,2019-7-02T13:27:39Z
2019-07-02T11:30:25Z,42.805,6.029,13.2958,4.59973,2469.76,2019-7-02T13:30:42Z
2019-07-02T11:33:28Z,42.805,6.029,13.2966,4.59968,2469.76,2019-7-02T13:33:45Z
2019-07-02T11:36:31Z,42.805,6.029,13.2961,4.59966,2469.821,2019-7-02T13:36:48Z
2019-07-02T11:39:34Z,42.805,6.029,13.2959,4.59968,2469.713,2019-7-02T13:39:51Z
2019-07-02T11:42:37Z,42.805,6.029,13.2964,4.59966,2469.76,2019-7-02T13:42:54Z
2019-07-02T11:45:40Z,42.805,6.029,13.2968,4.59967,2469.737,2019-7-02T13:45:57Z
2019-07-02T11:48:43Z,42.805,6.029,13.2964,4.59969,2469.737,2019-7-02T13:49:00Z
2019-07-02T11:51:46Z,42.805,6.029,13.2961,4.59970,2469.773,2019-7-02T13:52:03Z
2019-07-02T11:54:49Z,42.805,6.029,13.2961,4.59962,2469.737,2019-7-02T13:55:06Z
2019-07-02T11:57:51Z,42.805,6.029,13.2958,4.59966,2469.75,2019-7-02T13:58:09Z
2019-07-02T12:00:54Z,42.805,6.029,13.2961,4.59973,2469.723,2019-7-02T14:01:12Z
2019-07-02T12:03:57Z,42.805,6.029,13.2961,4.59968,2469.737,2019-7-02T14:04:15Z
2019-07-02T12:07:00Z,42.805,6.029,13.2958,4.59972,2469.75,2019-7-02T14:07:18Z
2019-07-02T12:10:03Z,42.805,6.029,13.2959,4.59954,2469.727,2019-7-02T14:10:21Z
2019-07-02T12:13:06Z,42.805,6.029,13.2959,4.59966,2469.76,2019-7-02T14:13:24Z
2019-07-02T12:16:09Z,42.805,6.029,13.2957,4.59966,2469.737,2019-7-02T14:16:27Z
2019-07-02T12:19:12Z,42.805,6.029,13.2964,4.59978,2469.737,2019-7-02T14:19:29Z
2019-07-02T12:22:15Z,42.805,6.029,13.2959,4.59971,2469.737,2019-7-02T14:22:32Z
2019-07-02T12:25:18Z,42.805,6.029,13.2967,4.59970,2469.713,2019-7-02T14:25:35Z
2019-07-02T12:28:21Z,42.805,6.029,13.2957,4.59970,2469.713,2019-7-02T14:28:38Z
2019-07-02T12:31:24Z,42.805,6.029,13.2966,4.59968,2469.76,2019-7-02T14:31:41Z
2019-07-02T12:34:27Z,42.805,6.029,13.2957,4.59966,2469.737,2019-7-02T14:34:44Z
2019-07-02T12:37:30Z,42.805,6.029,13.2958,4.59969,2469.737,2019-7-02T14:37:47Z
2019-07-02T12:40:33Z,42.805,6.029,13.2961,4.59967,2469.69,2019-7-02T14:40:50Z
2019-07-02T12:43:36Z,42.805,6.029,13.2953,4.59964,2469.713,2019-7-02T14:43:53Z
2019-07-02T12:46:39Z,42.805,6.029,13.2958,4.59961,2469.713,2019-7-02T14:46:56Z
2019-07-02T12:49:42Z,42.805,6.029,13.2957,4.59964,2469.737,2019-7-02T14:49:59Z
2019-07-02T12:52:45Z,42.805,6.029,13.2964,4.59962,2469.75,2019-7-02T14:53:02Z
2019-07-02T12:55:47Z,42.805,6.029,13.2963,4.59973,2469.737,2019-7-02T14:56:05Z
2019-07-02T12:58:50Z,42.805,6.029,13.2961,4.59972,2469.737,2019-7-02T14:59:08Z
2019-07-02T13:01:53Z,42.805,6.029,13.2963,4.59970,2469.699,2019-7-02T15:02:11Z
2019-07-02T13:04:56Z,42.805,6.029,13.2955,4.59969,2469.727,2019-7-02T15:05:14Z
2019-07-02T13:07:59Z,42.805,6.029,13.2958,4.59973,2469.713,2019-7-02T15:08:17Z
2019-07-02T13:11:02Z,42.805,6.029,13.2961,4.59968,2469.727,2019-7-02T15:11:20Z
2019-07-02T13:14:05Z,42.805,6.029,13.2960,4.59974,2469.727,2019-7-02T15:14:23Z
2019-07-02T13:17:08Z,42.805,6.029,13.2965,4.59972,2469.699,2019-7-02T15:17:25Z
2019-07-02T13:20:11Z,42.805,6.029,13.2960,4.59966,2469.713,2019-7-02T15:20:28Z
2019-07-02T13:23:14Z,42.805,6.029,13.2957,4.59964,2469.713,2019-7-02T15:23:31Z
2019-07-02T13:26:17Z,42.805,6.029,13.2958,4.59968,2469.727,2019-7-02T15:26:34Z
2019-07-02T13:29:20Z,42.805,6.029,13.2957,4.59963,2469.704,2019-7-02T15:29:37Z
2019-07-02T13:32:23Z,42.805,6.029,13.2962,4.59964,2469.713,2019-7-02T15:32:40Z
2019-07-02T13:35:26Z,42.805,6.029,13.2961,4.59967,2469.737,2019-7-02T15:35:43Z
2019-07-02T13:38:29Z,42.805,6.029,13.2957,4.59964,2469.713,2019-7-02T15:38:46Z
2019-07-02T13:41:32Z,42.805,6.029,13.2961,4.59962,2469.727,2019-7-02T15:41:49Z
2019-07-02T13:44:35Z,42.805,6.029,13.2961,4.59963,2469.75,2019-7-02T15:44:52Z
2019-07-02T13:47:38Z,42.805,6.029,13.2961,4.59968,2469.737,2019-7-02T15:47:55Z
2019-07-02T13:50:41Z,42.805,6.029,13.2962,4.59968,2469.773,2019-7-02T15:50:58Z
2019-07-02T13:53:43Z,42.805,6.029,13.2958,4.59963,2469.75,2019-7-02T15:54:01Z
2019-07-02T13:56:46Z,42.805,6.029,13.2959,4.59968,2469.737,2019-7-02T15:57:04Z
2019-07-02T13:59:49Z,42.805,6.029,13.2961,4.59966,2469.727,2019-7-02T16:00:07Z
2019-07-02T14:02:52Z,42.805,6.029,13.2957,4.59965,2469.737,2019-7-02T16:03:10Z
2019-07-02T14:05:55Z,42.805,6.029,13.2959,4.59969,2469.76,2019-7-02T16:06:13Z
2019-07-02T14:08:58Z,42.805,6.029,13.2961,4.59969,2469.76,2019-7-02T16:09:16Z
2019-07-02T14:12:01Z,42.805,6.029,13.2961,4.59967,2469.737,2019-7-02T16:12:19Z
2019-07-02T14:15:04Z,42.805,6.029,13.2961,4.59967,2469.76,2019-7-02T16:15:21Z
2019-07-02T14:18:07Z,42.805,6.029,13.2961,4.59969,2469.76,2019-7-02T16:18:24Z
2019-07-02T14:21:10Z,42.805,6.029,13.2957,4.59963,2469.737,2019-7-02T16:21:27Z
2019-07-02T14:24:13Z,42.805,6.029,13.2958,4.59968,2469.773,2019-7-02T16:24:30Z
2019-07-02T14:27:16Z,42.805,6.029,13.2955,4.59963,2469.797,2019-7-02T16:27:33Z
2019-07-02T14:30:19Z,42.805,6.029,13.2964,4.59976,2469.797,2019-7-02T16:30:36Z
2019-07-02T14:33:22Z,42.805,6.029,13.2964,4.59967,2469.773,2019-7-02T16:33:39Z
2019-07-02T14:36:25Z,42.805,6.029,13.2961,4.59966,2469.737,2019-7-02T16:36:42Z
2019-07-02T14:39:28Z,42.805,6.029,13.2960,4.59964,2469.76,2019-7-02T16:39:45Z
2019-07-02T14:42:31Z,42.805,6.029,13.2959,4.59974,2469.76,2019-7-02T16:42:48Z
2019-07-02T14:45:34Z,42.805,6.029,13.2961,4.59968,2469.783,2019-7-02T16:45:51Z
2019-07-02T14:48:37Z,42.805,6.029,13.2961,4.59966,2469.75,2019-7-02T16:48:54Z
2019-07-02T14:51:40Z,42.805,6.029,13.2962,4.59964,2469.75,2019-7-02T16:51:57Z
2019-07-02T14:54:42Z,42.805,6.029,13.2965,4.59965,2469.76,2019-7-02T16:55:00Z
2019-07-02T14:57:45Z,42.805,6.029,13.2962,4.59972,2469.773,2019-7-02T16:58:03Z
2019-07-02T15:00:48Z,42.805,6.029,13.2957,4.59968,2469.783,2019-7-02T17:01:06Z
2019-07-02T15:03:51Z,42.805,6.029,13.2957,4.59968,2469.821,2019-7-02T17:04:09Z
2019-07-02T15:06:54Z,42.805,6.029,13.2957,4.59964,2469.821,2019-7-02T17:07:12Z
2019-07-02T15:09:57Z,42.805,6.029,13.2958,4.59964,2469.773,2019-7-02T17:10:15Z